SCP
0 0 0 0 0 0 0 0 0 0 0 0 0 0 0 0 1 1 1 1 1 1 1 1 1 1 1 1 1 1 1 1 1 1 1 1 1 1 1 0 0 0 0 0
0 0 0 0 0 0 0 0 0 0 0 0 0 0 1 1 1 1 1 1 1 1 1 1 1 1 1 1 1 1 1 1 1 1 1 1 1 1 1 1 1 0 0 0
0 0 0 0 0 0 0 0 0 0 0 0 0 1 1 1 1 1 1 1 1 2 2 1 1 1 1 1 1 1 1 1 1 1 1 1 1 1 1 1 1 1 0 0
0 0 0 0 0 0 0 0 0 0 0 0 0 1 1 1 1 1 1 1 2 2 2 2 1 1 1 1 1 1 1 1 1 1 1 1 1 1 1 1 1 1 0 0
0 0 0 0 0 0 0 0 0 0 0 0 0 0 1 1 1 1 1 1 2 2 2 2 1 1 1 1 1 1 1 1 1 1 1 1 1 1 1 1 1 0 0 0
0 0 0 0 0 0 0 0 0 1 1 1 1 1 1 1 1 1 1 1 2 2 2 2 2 2 2 2 2 1 1 1 1 1 1 1 1 1 1 1 1 0 0 0
0 0 0 0 0 0 0 1 1 1 1 1 1 1 1 1 1 1 1 1 2 2 2 2 2 2 2 2 2 2 2 2 2 1 1 1 1 1 1 1 0 0 0 0
0 0 0 0 0 0 1 1 1 1 1 1 1 1 1 1 1 1 1 2 2 2 2 2 2 2 2 2 2 2 2 2 1 1 1 1 1 1 1 1 0 0 0 0
0 0 0 0 0 1 1 1 1 1 1 1 1 1 1 1 1 1 1 2 2 2 2 2 2 2 2 2 2 2 2 2 1 1 1 1 1 1 0 0 0 0 0 0
0 0 0 0 0 1 1 1 1 1 1 1 1 1 1 1 1 1 1 2 2 2 2 2 2 2 2 2 2 2 2 2 1 1 1 1 1 0 0 0 0 0 0 0
0 0 0 0 0 0 1 1 1 1 1 1 1 1 1 1 1 1 2 2 2 2 2 2 2 1 2 2 2 2 2 1 1 1 1 1 0 0 0 0 0 0 0 0
0 0 0 0 0 0 1 1 1 1 1 1 1 1 1 2 2 2 2 2 2 2 2 2 1 1 1 2 2 2 2 1 1 1 1 0 0 0 0 0 0 0 0 0
0 0 0 0 0 0 1 1 1 1 1 1 1 1 1 2 2 2 2 1 1 1 2 1 1 1 1 1 1 1 1 1 1 1 1 1 0 0 0 0 0 0 0 0
0 0 0 0 0 0 1 1 1 1 1 1 1 1 1 1 1 1 1 1 1 1 1 1 1 1 1 1 1 1 1 1 1 1 1 1 0 0 0 0 0 0 0 0
0 0 0 0 0 0 0 1 1 1 1 1 1 1 1 1 1 1 1 1 1 1 1 1 1 1 1 1 1 1 1 0 0 0 0 0 1 0 0 0 0 0 0 0
0 0 0 0 0 0 0 1 1 1 1 1 1 1 1 1 1 1 1 1 1 1 1 1 1 1 1 1 1 0 0 0 0 0 0 0 0 0 0 0 0 0 0 0
0 0 0 0 0 0 1 1 1 1 1 1 1 1 1 1 1 1 1 1 1 1 1 1 1 1 1 0 0 0 0 0 0 0 0 0 0 0 0 0 0 0 0 0
0 0 0 0 0 0 1 1 1 1 1 1 1 1 1 1 1 1 1 1 1 1 1 1 1 0 0 0 0 0 0 0 0 0 0 0 0 0 0 0 0 0 0 0
0 0 0 0 0 0 0 0 1 1 1 1 1 1 1 1 1 1 1 1 1 1 1 0 0 0 0 0 0 0 0 0 0 0 0 0 0 0 0 0 0 0 0 0
0 0 0 0 0 0 0 0 0 0 0 1 1 1 1 1 1 1 1 1 1 1 1 0 0 0 0 0 0 0 0 0 0 0 0 0 0 0 0 0 0 0 0 0
0 0 0 0 0 0 0 0 0 0 0 0 0 1 1 1 1 1 1 1 1 1 0 0 0 0 0 0 0 0 0 0 0 0 0 0 0 0 0 0 0 0 0 0
0 0 0 0 0 0 0 0 0 0 0 0 0 0 1 1 1 1 1 1 1 0 0 0 0 0 0 0 0 0 0 0 0 0 0 0 0 0 0 0 0 0 0 0
0 0 0 0 0 0 0 0 0 0 0 0 0 0 0 1 1 1 1 1 0 0 0 0 0 0 0 0 0 0 0 0 0 0 0 0 0 0 0 0 0 0 0 0
0 0 0 0 0 0 0 0 0 0 0 0 0 0 0 0 0 0 0 0 0 0 0 0 0 0 0 0 0 0 0 0 0 0 0 0 0 0 0 0 0 0 0 0
0 0 0 0 0 0 0 0 0 0 0 0 0 0 0 0 0 0 0 0 0 0 0 0 0 0 0 0 0 0 0 0 0 0 0 0 0 0 0 0 0 0 0 0
0 0 0 0 0 0 0 0 0 0 0 0 0 0 0 0 0 0 0 0 0 0 0 0 0 0 0 0 0 0 0 0 0 0 0 0 0 0 0 0 0 0 0 0
0 0 0 0 0 0 0 0 0 0 0 0 0 0 0 0 0 0 0 0 0 0 0 0 0 0 0 0 0 0 0 0 0 0 0 0 0 0 0 0 0 0 0 0
Wind_Speed
10 8 8 10 11 12 13 13 12 9 7 5 4 3 2 3 5 7 9 10 10 10 9 10 10 9 9 9 8 8 8 7 6 5 4 4 3 3 3 2 2 2 2 2
10 10 11 12 12 12 12 12 12 10 8 4 3 3 2 3 5 7 7 8 9 10 10 10 10 10 10 9 9 8 8 7 7 6 5 4 4 4 3 3 2 2 2 2
10 9 11 15 12 12 11 10 11 11 8 4 5 4 4 3 4 5 6 7 7 9 9 10 10 10 10 10 9 9 8 7 7 7 6 5 4 4 4 3 3 2 2 2
7 9 15 6 4 7 9 9 9 8 6 5 5 4 3 2 3 4 5 6 7 7 8 9 10 10 10 10 10 9 8 8 7 7 6 6 5 5 4 3 3 2 2 2
8 11 10 6 3 5 8 7 5 5 5 4 4 4 4 2 3 4 4 4 5 6 7 8 9 10 11 10 10 9 9 8 8 7 7 6 5 4 4 3 3 3 3 2
9 11 11 5 2 2 6 8 1 3 3 3 4 6 2 1 2 2 2 2 4 5 6 7 8 10 11 10 10 9 9 8 8 7 7 6 5 5 4 4 4 3 3 2
11 11 6 1 0 4 9 2 2 3 3 3 3 5 4 3 2 2 1 3 4 6 6 7 8 9 10 10 9 8 8 7 7 7 7 6 6 5 5 4 4 3 3 3
10 12 6 4 1 3 4 5 5 4 4 3 4 4 3 2 1 1 2 3 5 5 6 6 8 9 8 8 7 7 8 7 7 7 6 6 6 5 4 4 4 4 3 3
4 3 3 3 3 4 4 5 5 6 6 5 4 3 3 1 0 1 2 3 4 5 6 6 7 8 8 7 7 8 8 7 6 6 5 5 6 6 5 4 3 3 4 3
4 3 1 2 3 4 4 5 6 6 6 6 5 3 2 1 0 1 2 3 4 5 6 5 6 6 7 7 8 8 8 7 6 6 6 5 4 4 4 4 4 4 3 3
5 3 3 2 3 5 6 6 5 5 6 5 4 3 1 0 1 1 2 3 4 4 5 5 5 6 6 7 8 8 8 7 6 6 6 5 4 2 2 2 1 2 2 3
4 2 4 4 6 7 7 6 6 5 4 4 3 2 1 1 1 2 2 3 4 4 4 5 5 5 5 6 7 7 6 6 5 5 5 5 5 4 5 3 4 2 2 1
5 5 5 6 6 6 6 5 5 4 4 3 2 1 1 2 2 2 3 3 3 4 4 5 5 5 5 5 6 6 5 5 4 4 5 5 5 5 5 3 3 3 2 1
4 5 5 5 5 5 5 5 5 3 2 2 2 0 2 2 3 3 3 3 3 3 4 5 5 5 5 5 5 6 5 4 4 4 4 4 4 4 4 5 5 4 5 5
5 6 6 6 5 5 5 4 3 2 0 1 1 2 2 2 2 2 2 2 3 3 3 4 4 4 4 5 5 5 4 4 4 3 4 4 4 4 4 4 4 4 5 6
6 7 6 6 6 6 4 3 2 1 0 1 1 2 2 3 3 3 2 2 2 2 3 3 3 4 4 5 5 4 3 4 4 4 4 4 4 4 4 4 5 4 4 4
6 6 6 7 6 5 4 3 2 1 1 1 1 2 2 2 2 3 2 1 1 2 2 2 3 4 4 4 4 4 4 5 5 4 4 3 3 4 3 4 4 4 4 3
6 6 6 6 6 5 4 3 2 1 0 1 1 1 1 1 2 3 2 2 2 1 1 2 3 3 3 4 3 3 3 4 4 4 3 3 3 3 4 4 4 5 4 5
4 5 5 5 4 4 3 2 1 0 0 1 1 1 1 0 1 2 2 2 2 1 1 2 3 3 3 3 3 3 4 4 4 4 3 4 4 4 4 4 5 5 4 4
3 3 4 4 4 3 2 1 1 0 0 1 1 0 0 1 1 2 1 1 1 0 1 2 3 3 3 3 3 3 3 4 4 4 3 3 3 3 4 4 4 4 4 4
3 2 3 3 3 2 2 2 1 1 1 1 1 1 1 1 1 1 1 1 1 1 2 3 3 3 2 2 4 2 2 3 3 3 3 3 3 3 3 4 4 4 4 4
2 2 2 3 2 2 2 2 1 1 1 1 1 1 1 2 2 2 1 1 1 2 2 3 2 1 1 2 3 2 3 3 3 3 3 3 3 3 3 3 4 3 3 3
2 2 2 2 2 2 3 2 2 2 2 2 2 2 2 2 1 1 1 1 1 2 2 1 2 2 3 3 2 3 3 3 3 3 3 3 3 3 3 3 3 3 3 3
2 2 2 3 3 3 2 2 2 1 1 1 1 2 2 2 1 1 1 2 1 2 2 2 3 3 5 4 3 3 3 3 3 3 3 4 3 3 3 3 3 3 3 4
2 2 2 3 3 2 2 2 1 1 1 1 1 1 1 1 1 1 1 2 2 3 3 4 5 5 5 3 3 2 2 2 2 2 3 3 3 3 3 4 4 4 4 4
1 1 1 2 2 2 2 2 1 1 1 1 0 0 0 1 1 2 2 2 2 2 2 2 3 4 3 2 2 2 2 2 3 3 3 3 4 4 4 4 5 4 4 4
1 1 1 2 2 2 1 1 1 1 1 1 0 0 1 1 1 1 1 1 2 2 1 1 2 3 2 2 2 2 2 2 2 3 3 3 4 4 4 4 4 3 3 3
Wind_Direction
249 249 236 227 224 223 235 249 254 248 247 253 254 252 232 204 185 179 174 176 178 177 172 171 169 168 168 166 166 163 162 159 156 153 150 148 147 150 151 147 144 146 157 142
234 234 235 235 231 230 234 244 247 249 251 265 258 253 234 213 193 188 184 182 180 179 175 173 171 169 167 169 166 164 163 157 151 149 147 149 152 152 149 146 144 147 148 136
230 218 232 232 230 230 230 237 246 246 251 246 244 250 251 231 209 202 198 191 186 185 182 177 174 170 169 167 165 163 162 157 154 152 153 156 155 148 146 144 137 145 148 143
234 220 233 227 238 241 237 236 243 254 261 250 254 259 253 227 225 226 217 199 191 187 180 178 173 169 166 162 163 162 161 159 157 156 154 155 152 148 146 141 135 138 142 136
233 230 229 215 215 232 235 237 250 257 261 265 267 241 212 218 255 246 230 207 192 187 181 172 170 166 164 165 166 167 166 164 162 159 154 154 154 152 150 148 144 147 132 129
230 239 233 199 170 264 250 228 252 290 279 279 263 249 233 345 306 279 228 186 181 172 163 163 167 165 167 169 170 174 169 167 163 159 156 156 153 152 152 154 153 151 131 132
233 237 232 64 279 226 234 241 346 302 296 284 288 311 320 309 291 272 204 168 164 162 160 163 165 167 172 173 175 171 166 164 160 158 158 156 152 153 152 152 147 142 132 133
232 238 220 60 246 264 338 347 323 307 295 290 291 308 307 304 276 217 178 161 161 162 157 158 163 169 171 170 161 156 157 159 159 159 161 153 152 151 151 151 153 156 155 156
254 263 20 355 337 341 333 320 319 314 304 289 281 288 304 305 245 170 158 158 162 156 148 150 160 166 162 152 151 153 154 154 154 153 155 154 156 154 157 170 179 175 177 177
247 222 282 325 339 341 333 321 316 310 303 289 278 284 292 295 147 137 135 148 150 150 151 150 152 153 150 151 156 155 153 152 153 155 158 157 160 165 176 182 192 191 189 184
240 251 259 270 331 333 326 320 315 314 308 294 280 278 281 187 119 103 117 133 142 150 153 152 148 146 149 154 157 155 152 154 159 162 159 158 160 151 194 171 212 221 206 188
263 293 291 303 323 322 317 319 317 309 313 311 302 291 289 108 96 108 116 119 132 143 144 142 141 141 146 153 157 156 156 162 170 165 161 171 164 145 62 71 88 80 33 333
306 310 308 299 303 311 317 321 318 311 309 309 307 280 177 117 112 111 116 120 125 134 138 140 141 142 148 151 153 157 161 169 170 167 169 180 181 176 165 142 118 123 138 136
305 305 297 302 308 314 317 312 306 305 307 309 308 143 116 114 111 108 109 117 126 134 136 137 137 140 145 149 154 158 161 160 172 174 178 182 187 191 190 185 179 177 175 180
297 301 299 303 301 305 305 298 287 280 325 6 49 93 105 107 100 89 92 112 129 139 133 130 133 137 144 150 153 160 166 167 172 172 179 184 191 196 193 196 196 188 174 167
297 299 297 301 303 302 300 292 285 284 300 30 42 76 93 102 100 91 95 122 140 139 133 136 138 140 150 152 152 159 161 149 171 185 187 188 191 199 200 202 205 202 199 187
287 288 292 297 296 294 300 304 305 299 291 28 45 74 93 108 118 111 116 122 121 135 143 145 142 143 154 159 166 173 168 163 182 197 195 195 196 202 207 214 213 211 211 185
288 285 283 282 284 283 285 291 276 266 255 100 71 75 91 136 146 131 136 135 123 112 126 139 132 138 156 165 174 182 178 176 190 198 189 196 204 206 212 217 214 215 210 181
295 295 294 293 289 278 272 260 243 216 66 83 84 83 83 102 124 125 136 157 165 174 148 117 126 163 168 161 173 187 187 184 187 191 188 179 200 208 212 215 215 214 211 202
300 302 315 317 313 303 297 283 256 216 157 118 109 76 99 105 117 124 131 188 257 26 114 144 181 181 170 169 211 196 189 188 190 189 190 195 201 210 217 217 217 218 219 218
301 315 330 332 332 332 325 321 300 231 220 214 198 179 161 163 158 187 193 183 90 108 148 167 193 184 178 174 221 210 196 195 194 196 201 203 201 210 220 221 222 222 223 224
301 313 327 331 326 328 324 320 302 270 259 245 230 206 200 197 192 201 211 200 132 141 181 182 184 134 166 217 206 203 202 201 197 198 205 213 220 222 220 227 230 226 225 226
297 304 313 313 304 294 291 290 281 266 255 250 239 229 231 240 237 215 212 184 167 164 194 166 118 136 209 221 217 209 208 211 211 209 209 217 228 230 226 226 233 229 224 224
288 282 295 299 295 287 281 292 307 309 302 286 253 241 237 228 224 217 172 128 150 180 190 133 151 192 223 223 216 216 216 219 223 223 223 217 216 223 230 234 235 231 227 229
295 293 296 288 285 276 271 263 242 228 225 212 201 212 247 240 224 175 170 178 176 199 182 159 181 208 224 231 229 223 214 230 251 250 231 233 231 224 228 232 238 239 237 235
304 297 293 277 277 271 264 253 243 230 206 192 165 89 122 158 174 185 186 184 182 197 202 173 176 206 222 216 219 223 216 199 211 232 241 246 248 247 242 241 240 248 251 248
9 317 274 264 252 245 239 230 227 229 207 190 224 188 166 176 181 185 194 196 191 199 196 194 204 217 222 224 217 212 216 222 233 239 243 248 253 254 247 243 247 251 257 254